Time,TemperatureF,DewpointF,PressureIn,WindDirection,WindDirectionDegrees,WindSpeedMPH,WindSpeedGustMPH,Humidity,HourlyPrecipIn,Conditions,Clouds,dailyrainin,SoftwareType,DateUTC
2013-05-25 00:00:00,67.5,63.5,30.03,SE,133,7.0,15.0,87,0.05,,---,0.00,VWS V14.01,2013-05-25 05:00:00,
2013-05-25 00:02:00,67.5,63.5,30.03,SE,130,6.0,10.0,87,0.03,,---,0.00,VWS V14.01,2013-05-25 05:02:00,
2013-05-25 00:05:00,67.4,63.4,30.03,SE,140,8.0,13.0,87,0.03,,---,0.00,VWS V14.01,2013-05-25 05:05:00,
2013-05-25 00:08:00,67.3,63.3,30.03,SE,145,6.0,13.0,87,0.04,,---,0.01,VWS V14.01,2013-05-25 05:08:00,
2013-05-25 00:11:00,67.3,63.3,30.03,SE,140,7.0,13.0,87,0.04,,---,0.01,VWS V14.01,2013-05-25 05:11:00,
2013-05-25 00:14:00,67.2,63.5,30.04,SE,134,8.0,13.0,88,0.04,,---,0.01,VWS V14.01,2013-05-25 05:14:00,
2013-05-25 00:17:00,67.1,63.4,30.03,SE,132,8.0,13.0,88,0.04,,---,0.01,VWS V14.01,2013-05-25 05:17:00,
2013-05-25 00:20:00,67.1,63.4,30.03,SE,141,5.0,13.0,88,0.04,,---,0.01,VWS V14.01,2013-05-25 05:20:00,
2013-05-25 00:23:00,67.0,63.3,30.03,SE,135,7.0,13.0,88,0.04,,---,0.01,VWS V14.01,2013-05-25 05:23:00,
2013-05-25 00:26:00,66.9,63.6,30.04,SSE,155,7.0,13.0,89,0.04,,---,0.01,VWS V14.01,2013-05-25 05:26:00,
2013-05-25 00:29:00,66.9,63.6,30.04,SSE,149,6.0,13.0,89,0.05,,---,0.02,VWS V14.01,2013-05-25 05:29:00,
2013-05-25 00:30:00,66.8,63.5,30.04,SE,143,6.0,13.0,89,0.05,,---,0.02,VWS V14.01,2013-05-25 05:30:00,
2013-05-25 00:32:00,66.8,63.5,30.04,SSE,148,3.0,9.0,89,0.03,,---,0.02,VWS V14.01,2013-05-25 05:32:00,
2013-05-25 00:35:00,66.7,63.4,30.04,SE,139,8.0,11.0,89,0.03,,---,0.02,VWS V14.01,2013-05-25 05:35:00,
2013-05-25 00:38:00,66.7,63.4,30.04,SE,132,3.0,11.0,89,0.03,,---,0.02,VWS V14.01,2013-05-25 05:38:00,
2013-05-25 00:41:00,66.7,63.4,30.04,SE,138,7.0,11.0,89,0.03,,---,0.02,VWS V14.01,2013-05-25 05:41:00,
2013-05-25 00:44:00,66.7,63.4,30.04,SSE,153,3.0,11.0,89,0.03,,---,0.02,VWS V14.01,2013-05-25 05:44:00,
2013-05-25 00:47:00,66.7,63.4,30.04,SE,139,7.0,11.0,89,0.04,,---,0.03,VWS V14.01,2013-05-25 05:47:00,
2013-05-25 00:50:00,66.6,63.3,30.04,SE,134,2.0,11.0,89,0.04,,---,0.03,VWS V14.01,2013-05-25 05:50:00,
2013-05-25 00:53:00,66.6,63.3,30.05,SE,128,4.0,11.0,89,0.04,,---,0.03,VWS V14.01,2013-05-25 05:53:00,
2013-05-25 00:56:00,66.6,63.3,30.05,ESE,123,1.0,11.0,89,0.04,,---,0.03,VWS V14.01,2013-05-25 05:56:00,
2013-05-25 00:59:00,66.6,63.3,30.05,SE,138,6.0,11.0,89,0.04,,---,0.03,VWS V14.01,2013-05-25 05:59:00,
2013-05-25 01:00:00,66.5,63.2,30.05,SE,142,3.0,11.0,89,0.04,,---,0.03,VWS V14.01,2013-05-25 06:00:00,
2013-05-25 01:02:00,66.6,63.3,30.05,SE,136,4.0,5.0,89,0.03,,---,0.03,VWS V14.01,2013-05-25 06:02:00,
2013-05-25 01:05:00,66.6,63.3,30.05,SE,127,3.0,6.0,89,0.03,,---,0.03,VWS V14.01,2013-05-25 06:05:00,
2013-05-25 01:08:00,66.6,63.3,30.05,ESE,119,4.0,8.0,89,0.03,,---,0.03,VWS V14.01,2013-05-25 06:08:00,
2013-05-25 01:14:00,66.6,63.3,30.05,SE,135,6.0,8.0,89,0.04,,---,0.04,VWS V14.01,2013-05-25 06:14:00,
2013-05-25 01:17:00,66.6,63.3,30.05,SE,134,3.0,8.0,89,0.04,,---,0.04,VWS V14.01,2013-05-25 06:17:00,
2013-05-25 01:20:00,66.6,63.3,30.05,SE,138,4.0,8.0,89,0.04,,---,0.04,VWS V14.01,2013-05-25 06:20:00,
2013-05-25 01:23:00,66.5,63.2,30.05,SE,128,2.0,8.0,89,0.04,,---,0.04,VWS V14.01,2013-05-25 06:23:00,
2013-05-25 01:26:00,66.5,63.2,30.05,SE,133,5.0,8.0,89,0.04,,---,0.04,VWS V14.01,2013-05-25 06:26:00,
2013-05-25 01:32:00,66.5,63.2,30.05,SE,140,2.0,4.0,89,0.03,,---,0.05,VWS V14.01,2013-05-25 06:32:00,
2013-05-25 01:35:00,66.4,63.1,30.05,SE,138,2.0,4.0,89,0.03,,---,0.05,VWS V14.01,2013-05-25 06:35:00,
2013-05-25 01:38:00,66.3,63.3,30.05,SE,129,3.0,4.0,90,0.03,,---,0.05,VWS V14.01,2013-05-25 06:38:00,
2013-05-25 01:41:00,66.3,63.3,30.05,SE,132,1.0,4.0,90,0.03,,---,0.05,VWS V14.01,2013-05-25 06:41:00,
2013-05-25 01:44:00,66.3,63.0,30.05,SE,129,4.0,6.0,89,0.03,,---,0.05,VWS V14.01,2013-05-25 06:44:00,
2013-05-25 01:56:00,66.3,63.3,30.06,ESE,119,1.0,6.0,90,0.04,,---,0.06,VWS V14.01,2013-05-25 06:56:00,
2013-05-25 01:59:00,66.3,63.3,30.06,SE,128,1.0,6.0,90,0.04,,---,0.06,VWS V14.01,2013-05-25 06:59:00,
2013-05-25 02:00:00,66.3,63.3,30.06,SE,128,0.0,6.0,90,0.04,,---,0.06,VWS V14.01,2013-05-25 07:00:00,
2013-05-25 02:02:00,66.3,63.3,30.06,SE,128,0.0,1.0,90,0.03,,---,0.06,VWS V14.01,2013-05-25 07:02:00,
2013-05-25 02:05:00,66.3,63.3,30.06,SE,128,0.0,1.0,90,0.03,,---,0.06,VWS V14.01,2013-05-25 07:05:00,
2013-05-25 02:10:00,66.6,63.3,30.06,SE,132,3.0,8.0,89,0.04,,---,0.04,VWS V14.01,2013-05-25 07:10:00,
2013-05-25 02:11:00,66.2,63.2,30.06,SE,128,0.0,1.0,90,0.03,,---,0.06,VWS V14.01,2013-05-25 07:11:00,
2013-05-25 02:15:00,66.2,63.2,30.06,SE,128,0.0,1.0,90,0.03,,---,0.06,VWS V14.01,2013-05-25 07:15:00,
2013-05-25 02:18:00,66.1,63.1,30.06,SE,128,0.0,1.0,90,0.04,,---,0.07,VWS V14.01,2013-05-25 07:18:00,
2013-05-25 02:21:00,66.1,63.1,30.06,SE,128,0.0,1.0,90,0.04,,---,0.07,VWS V14.01,2013-05-25 07:21:00,
2013-05-25 02:24:00,66.1,63.4,30.06,SE,128,0.0,1.0,91,0.04,,---,0.07,VWS V14.01,2013-05-25 07:24:00,
2013-05-25 02:27:00,66.0,63.3,30.06,SE,128,0.0,1.0,91,0.04,,---,0.07,VWS V14.01,2013-05-25 07:27:00,
2013-05-25 02:28:00,66.5,63.2,30.05,SE,135,2.0,8.0,89,0.05,,---,0.05,VWS V14.01,2013-05-25 07:28:00,
2013-05-25 02:36:00,65.8,63.4,30.05,SE,128,0.0,0.0,92,0.02,,---,0.07,VWS V14.01,2013-05-25 07:36:00,
2013-05-25 02:39:00,65.8,63.4,30.05,SE,128,0.0,0.0,92,0.02,,---,0.07,VWS V14.01,2013-05-25 07:39:00,
2013-05-25 02:45:00,65.7,63.3,30.05,SE,128,0.0,0.0,92,0.02,,---,0.07,VWS V14.01,2013-05-25 07:45:00,
2013-05-25 02:46:00,66.3,63.0,30.05,SE,131,0.0,6.0,89,0.03,,---,0.05,VWS V14.01,2013-05-25 07:46:00,
2013-05-25 02:48:00,65.6,63.2,30.05,SE,128,0.0,0.0,92,0.03,,---,0.08,VWS V14.01,2013-05-25 07:48:00,
2013-05-25 02:51:00,65.6,63.2,30.04,SE,128,0.0,0.0,92,0.03,,---,0.08,VWS V14.01,2013-05-25 07:51:00,
2013-05-25 02:52:00,66.3,63.3,30.06,SE,128,3.0,6.0,90,0.03,,---,0.05,VWS V14.01,2013-05-25 07:52:00,
2013-05-25 02:54:00,65.5,63.1,30.04,SE,128,0.0,0.0,92,0.03,,---,0.08,VWS V14.01,2013-05-25 07:54:00,
2013-05-25 03:00:00,65.5,63.4,30.04,SE,128,0.0,0.0,93,0.02,,---,0.08,VWS V14.01,2013-05-25 08:00:00,
2013-05-25 03:03:00,65.4,63.3,30.04,SE,128,0.0,0.0,93,0.02,,---,0.08,VWS V14.01,2013-05-25 08:03:00,
2013-05-25 03:07:00,66.2,63.2,30.06,SE,128,0.0,1.0,90,0.03,,---,0.06,VWS V14.01,2013-05-25 08:07:00,
2013-05-25 03:15:00,65.3,63.5,30.04,SE,128,0.0,0.0,94,0.03,,---,0.09,VWS V14.01,2013-05-25 08:15:00,
2013-05-25 03:28:00,65.9,63.2,30.06,SE,128,0.0,1.0,91,0.04,,---,0.07,VWS V14.01,2013-05-25 08:28:00,
2013-05-25 03:30:00,65.3,63.5,30.04,SW,216,0.0,2.0,94,0.03,,---,0.09,VWS V14.01,2013-05-25 08:30:00,
2013-05-25 03:31:00,65.8,63.4,30.06,SE,128,0.0,0.0,92,0.02,,---,0.07,VWS V14.01,2013-05-25 08:31:00,
2013-05-25 03:33:00,65.2,63.4,30.03,SW,232,0.0,2.0,94,0.02,,---,0.09,VWS V14.01,2013-05-25 08:33:00,
2013-05-25 03:40:00,65.8,63.4,30.05,SE,128,0.0,0.0,92,0.02,,---,0.07,VWS V14.01,2013-05-25 08:40:00,
2013-05-25 03:56:00,65.5,63.4,30.04,SE,128,0.0,0.0,93,0.03,,---,0.08,VWS V14.01,2013-05-25 08:56:00,
2013-05-25 04:05:00,65.4,63.3,30.04,SE,128,0.0,0.0,93,0.02,,---,0.08,VWS V14.01,2013-05-25 09:05:00,
2013-05-25 04:08:00,65.4,63.3,30.04,SE,128,0.0,0.0,93,0.02,,---,0.08,VWS V14.01,2013-05-25 09:08:00,
2013-05-25 04:17:00,65.3,63.5,30.04,SE,128,0.0,0.0,94,0.03,,---,0.09,VWS V14.01,2013-05-25 09:17:00,
2013-05-25 04:20:00,65.3,63.5,30.04,SE,128,0.0,0.0,94,0.03,,---,0.09,VWS V14.01,2013-05-25 09:20:00,
2013-05-25 04:23:00,65.3,63.5,30.04,SE,128,0.0,0.0,94,0.03,,---,0.09,VWS V14.01,2013-05-25 09:23:00,
2013-05-25 04:26:00,65.3,63.5,30.04,SSW,199,1.0,2.0,94,0.03,,---,0.09,VWS V14.01,2013-05-25 09:26:00,
2013-05-25 04:29:00,65.3,63.5,30.04,SW,226,0.0,0.0,94,0.02,,---,0.09,VWS V14.01,2013-05-25 09:29:00,
2013-05-25 04:35:00,65.1,63.3,30.03,SW,232,0.0,2.0,94,0.02,,---,0.09,VWS V14.01,2013-05-25 09:35:00,
2013-05-25 04:38:00,65.1,63.3,30.03,SW,227,0.0,2.0,94,0.02,,---,0.09,VWS V14.01,2013-05-25 09:38:00,
2013-05-25 04:44:00,65.2,63.4,30.02,ESE,120,0.0,2.0,94,0.02,,---,0.09,VWS V14.01,2013-05-25 09:44:00,
2013-05-25 04:47:00,65.1,63.3,30.02,ESE,120,0.0,2.0,94,0.03,,---,0.10,VWS V14.01,2013-05-25 09:47:00,
2013-05-25 04:50:00,65.1,63.3,30.02,ESE,120,0.0,2.0,94,0.03,,---,0.10,VWS V14.01,2013-05-25 09:50:00,
2013-05-25 04:53:00,65.1,63.3,30.02,ESE,120,0.0,2.0,94,0.03,,---,0.10,VWS V14.01,2013-05-25 09:53:00,
2013-05-25 04:56:00,65.1,63.3,30.01,ESE,120,0.0,2.0,94,0.03,,---,0.10,VWS V14.01,2013-05-25 09:56:00,
2013-05-25 04:58:00,65.0,63.2,30.01,ESE,120,0.0,2.0,94,0.03,,---,0.10,VWS V14.01,2013-05-25 09:58:00,
2013-05-25 05:02:00,65.0,63.2,30.02,ESE,120,0.0,0.0,94,0.02,,---,0.10,VWS V14.01,2013-05-25 10:02:00,
2013-05-25 05:05:00,65.0,63.2,30.02,ESE,120,0.0,0.0,94,0.02,,---,0.10,VWS V14.01,2013-05-25 10:05:00,
2013-05-25 05:08:00,65.0,63.2,30.02,ESE,120,0.0,0.0,94,0.02,,---,0.10,VWS V14.01,2013-05-25 10:08:00,
2013-05-25 05:11:00,65.0,63.5,30.02,ESE,120,0.0,0.0,95,0.02,,---,0.10,VWS V14.01,2013-05-25 10:11:00,
2013-05-25 05:17:00,65.0,63.5,30.03,ESE,120,0.0,0.0,95,0.02,,---,0.10,VWS V14.01,2013-05-25 10:17:00,
2013-05-25 05:20:00,65.0,63.5,30.02,ESE,120,0.0,0.0,95,0.03,,---,0.11,VWS V14.01,2013-05-25 10:20:00,
2013-05-25 05:23:00,65.0,63.5,30.02,ESE,120,0.0,0.0,95,0.03,,---,0.11,VWS V14.01,2013-05-25 10:23:00,
2013-05-25 05:26:00,65.0,63.2,30.02,ESE,117,1.0,3.0,94,0.03,,---,0.11,VWS V14.01,2013-05-25 10:26:00,
2013-05-25 05:28:00,65.0,63.2,30.02,ESE,117,2.0,3.0,94,0.03,,---,0.11,VWS V14.01,2013-05-25 10:28:00,
2013-05-25 05:29:00,65.0,63.2,30.03,ESE,117,2.0,3.0,94,0.02,,---,0.11,VWS V14.01,2013-05-25 10:29:00,
2013-05-25 05:32:00,65.0,63.2,30.03,ESE,117,1.0,3.0,94,0.02,,---,0.11,VWS V14.01,2013-05-25 10:32:00,
2013-05-25 05:38:00,65.2,63.4,30.03,ESE,120,3.0,5.0,94,0.02,,---,0.11,VWS V14.01,2013-05-25 10:38:00,
2013-05-25 05:41:00,65.2,63.4,30.03,ESE,117,0.0,5.0,94,0.02,,---,0.11,VWS V14.01,2013-05-25 10:41:00,
2013-05-25 05:44:00,65.3,63.5,30.03,ESE,117,0.0,5.0,94,0.02,,---,0.11,VWS V14.01,2013-05-25 10:44:00,
2013-05-25 05:47:00,65.3,63.2,30.03,ESE,117,0.0,5.0,93,0.02,,---,0.11,VWS V14.01,2013-05-25 10:47:00,
2013-05-25 05:50:00,65.3,63.2,30.03,ESE,117,0.0,5.0,93,0.02,,---,0.11,VWS V14.01,2013-05-25 10:50:00,
2013-05-25 05:56:00,65.3,63.2,30.03,ESE,117,0.0,5.0,93,0.02,,---,0.11,VWS V14.01,2013-05-25 10:56:00,
2013-05-25 05:58:00,65.3,63.2,30.03,ESE,117,0.0,5.0,93,0.02,,---,0.11,VWS V14.01,2013-05-25 10:58:00,
2013-05-25 06:02:00,65.4,63.6,30.03,ESE,117,0.0,1.0,94,0.01,,---,0.11,VWS V14.01,2013-05-25 11:02:00,
2013-05-25 06:06:00,65.4,63.6,30.04,ESE,117,0.0,1.0,94,0.01,,---,0.11,VWS V14.01,2013-05-25 11:06:00,
2013-05-25 06:09:00,65.3,63.2,30.04,ESE,117,0.0,1.0,93,0.02,,---,0.12,VWS V14.01,2013-05-25 11:09:00,
2013-05-25 06:12:00,65.3,63.2,30.03,ESE,117,0.0,1.0,93,0.02,,---,0.12,VWS V14.01,2013-05-25 11:12:00,
2013-05-25 06:15:00,65.2,63.1,30.03,ESE,117,0.0,1.0,93,0.02,,---,0.12,VWS V14.01,2013-05-25 11:15:00,
2013-05-25 06:18:00,65.2,63.1,30.03,ESE,117,0.0,1.0,93,0.02,,---,0.12,VWS V14.01,2013-05-25 11:18:00,
2013-05-25 06:21:00,65.2,63.4,30.03,ESE,117,0.0,1.0,94,0.02,,---,0.12,VWS V14.01,2013-05-25 11:21:00,
2013-05-25 06:24:00,65.2,63.4,30.03,ESE,117,0.0,1.0,94,0.02,,---,0.12,VWS V14.01,2013-05-25 11:24:00,
2013-05-25 06:27:00,65.2,63.4,30.03,ESE,117,0.0,1.0,94,0.02,,---,0.12,VWS V14.01,2013-05-25 11:27:00,
2013-05-25 06:30:00,65.3,63.5,30.03,ESE,117,0.0,0.0,94,0.01,,---,0.12,VWS V14.01,2013-05-25 11:30:00,
2013-05-25 06:36:00,65.3,63.2,30.03,SE,125,0.0,4.0,93,0.01,,---,0.12,VWS V14.01,2013-05-25 11:36:00,
2013-05-25 06:39:00,65.4,63.3,30.03,SE,125,2.0,4.0,93,0.01,,---,0.12,VWS V14.01,2013-05-25 11:39:00,
2013-05-25 06:42:00,65.5,63.4,30.03,SE,137,2.0,4.0,93,0.01,,---,0.12,VWS V14.01,2013-05-25 11:42:00,
2013-05-25 06:45:00,65.5,63.4,30.03,SE,126,2.0,4.0,93,0.02,,---,0.13,VWS V14.01,2013-05-25 11:45:00,
2013-05-25 06:48:00,65.6,63.5,30.03,ESE,123,2.0,5.0,93,0.02,,---,0.13,VWS V14.01,2013-05-25 11:48:00,
2013-05-25 06:51:00,65.6,63.5,30.03,SE,136,2.0,5.0,93,0.02,,---,0.13,VWS V14.01,2013-05-25 11:51:00,
2013-05-25 06:54:00,65.6,63.5,30.03,SE,135,1.0,5.0,93,0.02,,---,0.13,VWS V14.01,2013-05-25 11:54:00,
2013-05-25 06:57:00,65.6,63.5,30.04,SSE,149,1.0,5.0,93,0.02,,---,0.13,VWS V14.01,2013-05-25 11:57:00,
2013-05-25 07:03:00,65.6,63.5,30.04,SE,142,3.0,5.0,93,0.02,,---,0.13,VWS V14.01,2013-05-25 12:03:00,
2013-05-25 07:09:00,65.6,63.5,30.04,SE,139,0.0,5.0,93,0.02,,---,0.13,VWS V14.01,2013-05-25 12:09:00,
2013-05-25 07:12:00,65.7,63.6,30.04,SE,132,1.0,6.0,93,0.02,,---,0.13,VWS V14.01,2013-05-25 12:12:00,
2013-05-25 07:15:00,65.7,63.6,30.04,SSE,153,3.0,6.0,93,0.02,,---,0.13,VWS V14.01,2013-05-25 12:15:00,
2013-05-25 07:18:00,65.8,63.7,30.04,SE,146,4.0,6.0,93,0.02,,---,0.13,VWS V14.01,2013-05-25 12:18:00,
2013-05-25 07:21:00,65.8,63.7,30.05,SSE,154,6.0,6.0,93,0.02,,---,0.13,VWS V14.01,2013-05-25 12:21:00,
2013-05-25 07:27:00,65.8,63.7,30.05,SE,140,2.0,6.0,93,0.02,,---,0.13,VWS V14.01,2013-05-25 12:27:00,
2013-05-25 07:28:00,65.9,63.8,30.05,SE,143,3.0,6.0,93,0.02,,---,0.13,VWS V14.01,2013-05-25 12:28:00,
2013-05-25 07:33:00,66.0,63.9,30.04,SSE,150,3.0,7.0,93,0.01,,---,0.13,VWS V14.01,2013-05-25 12:33:00,
2013-05-25 07:36:00,66.0,63.9,30.05,SSE,158,4.0,7.0,93,0.01,,---,0.13,VWS V14.01,2013-05-25 12:36:00,
2013-05-25 07:42:00,66.1,64.0,30.04,SE,142,1.0,7.0,93,0.02,,---,0.14,VWS V14.01,2013-05-25 12:42:00,
2013-05-25 07:48:00,66.2,64.1,30.05,SE,141,4.0,7.0,93,0.02,,---,0.14,VWS V14.01,2013-05-25 12:48:00,
2013-05-25 07:51:00,66.3,64.2,30.05,SE,142,4.0,7.0,93,0.02,,---,0.14,VWS V14.01,2013-05-25 12:51:00,
2013-05-25 07:57:00,66.4,64.3,30.05,SSE,165,3.0,7.0,93,0.02,,---,0.14,VWS V14.01,2013-05-25 12:57:00,
2013-05-25 08:00:00,66.5,64.4,30.05,SE,144,4.0,4.0,93,0.01,,---,0.14,VWS V14.01,2013-05-25 13:00:00,
2013-05-25 08:03:00,66.6,64.5,30.05,SE,134,3.0,7.0,93,0.01,,---,0.14,VWS V14.01,2013-05-25 13:03:00,
2013-05-25 08:09:00,66.7,64.6,30.05,SSE,148,3.0,7.0,93,0.01,,---,0.14,VWS V14.01,2013-05-25 13:09:00,
2013-05-25 08:12:00,66.7,64.6,30.05,SSE,149,4.0,7.0,93,0.01,,---,0.14,VWS V14.01,2013-05-25 13:12:00,
2013-05-25 08:15:00,66.8,64.4,30.05,SSE,158,3.0,8.0,92,0.01,,---,0.14,VWS V14.01,2013-05-25 13:15:00,
2013-05-25 08:19:00,66.8,64.4,30.05,SE,143,5.0,8.0,92,0.01,,---,0.14,VWS V14.01,2013-05-25 13:19:00,
2013-05-25 08:22:00,66.9,64.5,30.05,SE,130,3.0,8.0,92,0.01,,---,0.14,VWS V14.01,2013-05-25 13:22:00,
2013-05-25 08:25:00,67.0,64.6,30.05,SE,128,5.0,8.0,92,0.01,,---,0.14,VWS V14.01,2013-05-25 13:25:00,
2013-05-25 08:28:00,67.1,64.7,30.05,SSE,148,6.0,8.0,92,0.01,,---,0.14,VWS V14.01,2013-05-25 13:28:00,
2013-05-25 08:34:00,67.2,64.8,30.05,South,186,5.0,7.0,92,0.02,,---,0.15,VWS V14.01,2013-05-25 13:34:00,
2013-05-25 08:37:00,67.1,64.4,30.05,SSE,161,2.0,7.0,91,0.02,,---,0.15,VWS V14.01,2013-05-25 13:37:00,
2013-05-25 08:40:00,67.2,64.8,30.04,SE,131,5.0,7.0,92,0.02,,---,0.15,VWS V14.01,2013-05-25 13:40:00,
2013-05-25 08:43:00,67.2,64.8,30.04,SE,144,4.0,7.0,92,0.02,,---,0.15,VWS V14.01,2013-05-25 13:43:00,
2013-05-25 08:49:00,67.4,65.0,30.05,SSE,159,3.0,7.0,92,0.02,,---,0.15,VWS V14.01,2013-05-25 13:49:00,
2013-05-25 08:55:00,67.5,65.1,30.05,SSE,151,3.0,9.0,92,0.02,,---,0.15,VWS V14.01,2013-05-25 13:55:00,
2013-05-25 08:58:00,67.6,65.2,30.05,SE,136,8.0,9.0,92,0.02,,---,0.15,VWS V14.01,2013-05-25 13:58:00,
2013-05-25 09:01:00,67.6,65.2,30.05,SSE,149,3.0,8.0,92,0.01,,---,0.15,VWS V14.01,2013-05-25 14:01:00,
2013-05-25 09:04:00,67.7,65.3,30.05,SE,141,7.0,8.0,92,0.01,,---,0.15,VWS V14.01,2013-05-25 14:04:00,
2013-05-25 09:07:00,67.7,65.3,30.05,SE,138,7.0,10.0,92,0.01,,---,0.15,VWS V14.01,2013-05-25 14:07:00,
2013-05-25 09:10:00,67.7,65.3,30.05,SE,131,4.0,10.0,92,0.01,,---,0.15,VWS V14.01,2013-05-25 14:10:00,
2013-05-25 09:13:00,67.8,65.4,30.05,SE,146,5.0,10.0,92,0.01,,---,0.15,VWS V14.01,2013-05-25 14:13:00,
2013-05-25 09:19:00,68.0,65.6,30.05,SE,126,5.0,10.0,92,0.01,,---,0.15,VWS V14.01,2013-05-25 14:19:00,
2013-05-25 09:22:00,68.0,65.6,30.05,SE,133,6.0,10.0,92,0.01,,---,0.15,VWS V14.01,2013-05-25 14:22:00,
2013-05-25 09:25:00,68.1,65.7,30.05,SSE,159,5.0,10.0,92,0.01,,---,0.15,VWS V14.01,2013-05-25 14:25:00,
2013-05-25 09:28:00,68.2,65.8,30.05,SE,134,3.0,10.0,92,0.01,,---,0.15,VWS V14.01,2013-05-25 14:28:00,
2013-05-25 09:31:00,68.3,65.9,30.05,SSE,159,5.0,8.0,92,0.01,,---,0.15,VWS V14.01,2013-05-25 14:31:00,
2013-05-25 09:34:00,68.4,66.0,30.05,SE,130,5.0,8.0,92,0.01,,---,0.15,VWS V14.01,2013-05-25 14:34:00,
2013-05-25 09:37:00,68.5,66.4,30.05,SE,146,6.0,8.0,93,0.02,,---,0.16,VWS V14.01,2013-05-25 14:37:00,
2013-05-25 09:40:00,68.6,66.5,30.05,SE,134,4.0,8.0,93,0.02,,---,0.16,VWS V14.01,2013-05-25 14:40:00,
2013-05-25 09:43:00,68.8,66.7,30.05,SSE,161,10.0,10.0,93,0.02,,---,0.16,VWS V14.01,2013-05-25 14:43:00,
2013-05-25 09:46:00,68.9,66.8,30.06,SSE,166,3.0,10.0,93,0.02,,---,0.16,VWS V14.01,2013-05-25 14:46:00,
2013-05-25 09:49:00,69.1,67.0,30.06,SE,144,5.0,10.0,93,0.02,,---,0.16,VWS V14.01,2013-05-25 14:49:00,
2013-05-25 09:52:00,69.4,67.3,30.06,SE,127,5.0,10.0,93,0.02,,---,0.16,VWS V14.01,2013-05-25 14:52:00,
2013-05-25 09:58:00,69.8,67.4,30.06,SSE,158,3.0,4.0,92,0.01,,---,0.16,VWS V14.01,2013-05-25 14:58:00,
2013-05-25 10:01:00,70.0,67.6,30.06,South,180,7.0,8.0,92,0.01,,---,0.16,VWS V14.01,2013-05-25 15:01:00,
2013-05-25 10:04:00,70.1,67.7,30.06,SSE,150,5.0,8.0,92,0.01,,---,0.16,VWS V14.01,2013-05-25 15:04:00,
2013-05-25 10:07:00,70.1,67.4,30.06,South,170,8.0,10.0,91,0.01,,---,0.16,VWS V14.01,2013-05-25 15:07:00,
2013-05-25 10:10:00,70.0,67.6,30.06,SSE,150,6.0,11.0,92,0.01,,---,0.16,VWS V14.01,2013-05-25 15:10:00,
2013-05-25 10:13:00,70.0,67.6,30.06,South,175,7.0,11.0,92,0.01,,---,0.16,VWS V14.01,2013-05-25 15:13:00,
2013-05-25 10:19:00,70.1,67.7,30.06,SSE,153,5.0,11.0,92,0.01,,---,0.16,VWS V14.01,2013-05-25 15:19:00,
2013-05-25 10:22:00,70.3,67.9,30.06,SSE,155,7.0,11.0,92,0.01,,---,0.16,VWS V14.01,2013-05-25 15:22:00,
2013-05-25 10:28:00,70.8,68.4,30.06,SE,146,4.0,11.0,92,0.02,,---,0.17,VWS V14.01,2013-05-25 15:28:00,
2013-05-25 10:32:00,71.1,68.3,30.06,SE,142,7.0,8.0,91,0.02,,---,0.17,VWS V14.01,2013-05-25 15:32:00,
2013-05-25 10:38:00,71.3,68.5,30.06,SSE,150,5.0,9.0,91,0.02,,---,0.17,VWS V14.01,2013-05-25 15:38:00,
2013-05-25 10:41:00,71.3,68.5,30.06,SSE,166,4.0,9.0,91,0.02,,---,0.17,VWS V14.01,2013-05-25 15:41:00,
2013-05-25 10:44:00,71.5,68.7,30.06,SSE,156,7.0,9.0,91,0.02,,---,0.17,VWS V14.01,2013-05-25 15:44:00,
2013-05-25 10:50:00,71.7,68.6,30.06,South,173,3.0,9.0,90,0.02,,---,0.17,VWS V14.01,2013-05-25 15:50:00,
2013-05-25 10:53:00,71.7,68.6,30.06,SE,138,4.0,9.0,90,0.02,,---,0.17,VWS V14.01,2013-05-25 15:53:00,
2013-05-25 10:56:00,71.7,68.6,30.06,SE,145,5.0,9.0,90,0.02,,---,0.17,VWS V14.01,2013-05-25 15:56:00,
2013-05-25 10:58:00,71.7,68.6,30.06,SSW,198,7.0,9.0,90,0.02,,---,0.17,VWS V14.01,2013-05-25 15:58:00,
2013-05-25 10:59:00,71.7,68.6,30.06,South,188,5.0,7.0,90,0.01,,---,0.17,VWS V14.01,2013-05-25 15:59:00,
2013-05-25 11:05:00,71.8,68.7,30.06,South,169,4.0,8.0,90,0.01,,---,0.17,VWS V14.01,2013-05-25 16:05:00,
2013-05-25 11:08:00,71.9,68.8,30.06,South,184,4.0,8.0,90,0.01,,---,0.17,VWS V14.01,2013-05-25 16:08:00,
2013-05-25 11:14:00,72.1,69.0,30.06,SSW,198,4.0,8.0,90,0.01,,---,0.17,VWS V14.01,2013-05-25 16:14:00,
2013-05-25 11:17:00,72.3,68.9,30.06,South,184,4.0,9.0,89,0.01,,---,0.17,VWS V14.01,2013-05-25 16:17:00,
2013-05-25 11:20:00,72.4,68.7,30.06,South,171,6.0,9.0,88,0.01,,---,0.17,VWS V14.01,2013-05-25 16:20:00,
2013-05-25 11:23:00,72.6,68.8,30.06,South,181,7.0,10.0,88,0.01,,---,0.17,VWS V14.01,2013-05-25 16:23:00,
2013-05-25 11:28:00,72.8,69.0,30.06,South,190,4.0,10.0,88,0.01,,---,0.17,VWS V14.01,2013-05-25 16:28:00,
2013-05-25 11:29:00,72.9,69.5,30.06,SSW,200,6.0,9.0,89,0.00,,---,0.17,VWS V14.01,2013-05-25 16:29:00,
2013-05-25 11:32:00,73.3,69.9,30.06,South,169,2.0,9.0,89,0.00,,---,0.17,VWS V14.01,2013-05-25 16:32:00,
2013-05-25 11:35:00,74.0,70.2,30.06,South,174,4.0,10.0,88,0.00,,---,0.17,VWS V14.01,2013-05-25 16:35:00,
2013-05-25 11:38:00,74.7,69.9,30.06,SSE,150,8.0,12.0,85,0.00,,---,0.17,VWS V14.01,2013-05-25 16:38:00,
2013-05-25 11:41:00,74.6,69.4,30.05,SE,142,6.0,12.0,84,0.01,,---,0.18,VWS V14.01,2013-05-25 16:41:00,
2013-05-25 11:47:00,75.1,69.2,30.05,South,190,10.0,13.0,82,0.01,,---,0.18,VWS V14.01,2013-05-25 16:47:00,
2013-05-25 11:50:00,75.7,69.8,30.05,SSE,157,9.0,14.0,82,0.01,,---,0.18,VWS V14.01,2013-05-25 16:50:00,
2013-05-25 11:53:00,75.9,69.3,30.05,SSE,155,6.0,14.0,80,0.01,,---,0.18,VWS V14.01,2013-05-25 16:53:00,
2013-05-25 11:56:00,75.7,69.1,30.05,SSE,148,5.0,14.0,80,0.01,,---,0.18,VWS V14.01,2013-05-25 16:56:00,
2013-05-25 11:58:00,75.6,69.4,30.05,South,171,6.0,15.0,81,0.01,,---,0.18,VWS V14.01,2013-05-25 16:58:00,
2013-05-25 11:59:00,75.6,69.4,30.05,SSE,165,12.0,16.0,81,0.01,,---,0.18,VWS V14.01,2013-05-25 16:59:00,
2013-05-25 12:02:00,75.7,68.7,30.05,SSW,200,7.0,16.0,79,0.01,,---,0.18,VWS V14.01,2013-05-25 17:02:00,
2013-05-25 12:05:00,76.3,69.3,30.05,SSE,163,6.0,16.0,79,0.01,,---,0.18,VWS V14.01,2013-05-25 17:05:00,
2013-05-25 12:08:00,76.7,69.3,30.05,SSE,158,8.0,16.0,78,0.01,,---,0.18,VWS V14.01,2013-05-25 17:08:00,
2013-05-25 12:11:00,76.8,68.7,30.05,SSE,161,9.0,16.0,76,0.01,,---,0.18,VWS V14.01,2013-05-25 17:11:00,
2013-05-25 12:14:00,76.7,68.6,30.05,SSE,149,11.0,17.0,76,0.01,,---,0.18,VWS V14.01,2013-05-25 17:14:00,
2013-05-25 12:17:00,76.8,67.9,30.05,South,180,14.0,21.0,74,0.01,,---,0.18,VWS V14.01,2013-05-25 17:17:00,
2013-05-25 12:23:00,76.8,68.7,30.05,South,180,14.0,21.0,76,0.01,,---,0.18,VWS V14.01,2013-05-25 17:23:00,
2013-05-25 12:26:00,76.4,69.0,30.05,South,180,16.0,21.0,78,0.01,,---,0.18,VWS V14.01,2013-05-25 17:26:00,
2013-05-25 12:29:00,76.3,68.9,30.04,South,178,14.0,19.0,78,0.01,,---,0.18,VWS V14.01,2013-05-25 17:29:00,
2013-05-25 12:35:00,76.5,68.4,30.04,South,191,10.0,19.0,76,0.02,,---,0.19,VWS V14.01,2013-05-25 17:35:00,
2013-05-25 12:42:00,75.8,69.2,30.04,SSE,166,7.0,19.0,80,0.02,,---,0.19,VWS V14.01,2013-05-25 17:42:00,
2013-05-25 12:45:00,75.8,69.6,30.04,SSW,193,7.0,19.0,81,0.02,,---,0.19,VWS V14.01,2013-05-25 17:45:00,
2013-05-25 12:48:00,75.6,69.4,30.04,SSE,161,8.0,19.0,81,0.02,,---,0.19,VWS V14.01,2013-05-25 17:48:00,
2013-05-25 12:51:00,75.4,69.2,30.04,South,181,7.0,19.0,81,0.02,,---,0.19,VWS V14.01,2013-05-25 17:51:00,
2013-05-25 12:54:00,75.4,68.8,30.04,South,188,7.0,19.0,80,0.02,,---,0.19,VWS V14.01,2013-05-25 17:54:00,
2013-05-25 12:57:00,75.6,69.0,30.04,SSE,167,11.0,22.0,80,0.02,,---,0.19,VWS V14.01,2013-05-25 17:57:00,
2013-05-25 13:00:00,75.7,68.7,30.04,SSE,154,12.0,17.0,79,0.01,,---,0.19,VWS V14.01,2013-05-25 18:00:00,
2013-05-25 13:03:00,75.5,68.5,30.04,SSE,159,10.0,17.0,79,0.01,,---,0.19,VWS V14.01,2013-05-25 18:03:00,
2013-05-25 13:09:00,74.8,68.6,30.04,South,184,8.0,17.0,81,0.01,,---,0.19,VWS V14.01,2013-05-25 18:09:00,
2013-05-25 13:12:00,74.4,68.9,30.04,South,181,10.0,17.0,83,0.01,,---,0.19,VWS V14.01,2013-05-25 18:12:00,
2013-05-25 13:15:00,74.2,68.7,30.04,South,177,12.0,17.0,83,0.01,,---,0.19,VWS V14.01,2013-05-25 18:15:00,
2013-05-25 13:18:00,74.2,68.7,30.04,South,179,6.0,17.0,83,0.01,,---,0.19,VWS V14.01,2013-05-25 18:18:00,
2013-05-25 13:24:00,74.7,67.4,30.04,South,191,9.0,18.0,78,0.01,,---,0.19,VWS V14.01,2013-05-25 18:24:00,
2013-05-25 13:28:00,75.0,68.1,30.03,SSW,192,19.0,19.0,79,0.01,,---,0.19,VWS V14.01,2013-05-25 18:28:00,
2013-05-25 13:30:00,75.2,68.2,30.03,South,169,5.0,19.0,79,0.01,,---,0.19,VWS V14.01,2013-05-25 18:30:00,
2013-05-25 13:36:00,75.3,67.6,30.03,South,170,8.0,19.0,77,0.01,,---,0.19,VWS V14.01,2013-05-25 18:36:00,
2013-05-25 13:39:00,75.3,66.8,30.03,SSE,152,13.0,19.0,75,0.01,,---,0.19,VWS V14.01,2013-05-25 18:39:00,
2013-05-25 13:42:00,75.2,66.0,30.03,SW,215,14.0,19.0,73,0.01,,---,0.19,VWS V14.01,2013-05-25 18:42:00,
2013-05-25 13:45:00,74.9,66.1,30.03,SSE,162,8.0,19.0,74,0.01,,---,0.19,VWS V14.01,2013-05-25 18:45:00,
2013-05-25 13:51:00,74.6,66.2,30.03,SSE,165,9.0,20.0,75,0.02,,---,0.20,VWS V14.01,2013-05-25 18:51:00,
2013-05-25 13:54:00,74.4,66.0,30.03,SSE,159,8.0,20.0,75,0.02,,---,0.20,VWS V14.01,2013-05-25 18:54:00,
2013-05-25 13:57:00,74.1,65.7,30.03,South,180,9.0,20.0,75,0.02,,---,0.20,VWS V14.01,2013-05-25 18:57:00,
2013-05-25 14:00:00,74.1,66.1,30.02,SSE,157,5.0,16.0,76,0.01,,---,0.20,VWS V14.01,2013-05-25 19:00:00,
2013-05-25 14:06:00,74.3,66.2,30.02,South,191,9.0,18.0,76,0.01,,---,0.20,VWS V14.01,2013-05-25 19:06:00,
2013-05-25 14:09:00,74.5,66.8,30.02,South,174,9.0,18.0,77,0.01,,---,0.20,VWS V14.01,2013-05-25 19:09:00,
2013-05-25 14:12:00,74.7,66.6,30.02,SSE,167,10.0,18.0,76,0.01,,---,0.20,VWS V14.01,2013-05-25 19:12:00,
2013-05-25 14:18:00,75.4,67.7,30.02,SSE,158,17.0,18.0,77,0.01,,---,0.20,VWS V14.01,2013-05-25 19:18:00,
2013-05-25 14:21:00,75.7,67.2,30.02,SSE,159,8.0,18.0,75,0.01,,---,0.20,VWS V14.01,2013-05-25 19:21:00,
2013-05-25 14:24:00,76.0,67.5,30.02,South,186,7.0,18.0,75,0.01,,---,0.20,VWS V14.01,2013-05-25 19:24:00,
2013-05-25 14:27:00,76.2,67.3,30.01,South,182,15.0,18.0,74,0.01,,---,0.20,VWS V14.01,2013-05-25 19:27:00,
2013-05-25 14:30:00,76.2,66.9,30.01,SSE,157,14.0,20.0,73,0.01,,---,0.20,VWS V14.01,2013-05-25 19:30:00,
2013-05-25 14:33:00,76.4,66.7,30.01,SSW,209,8.0,22.0,72,0.01,,---,0.20,VWS V14.01,2013-05-25 19:33:00,
2013-05-25 14:36:00,76.5,66.8,30.01,South,170,13.0,23.0,72,0.01,,---,0.20,VWS V14.01,2013-05-25 19:36:00,
2013-05-25 14:39:00,76.5,67.2,30.01,South,189,10.0,23.0,73,0.01,,---,0.20,VWS V14.01,2013-05-25 19:39:00,
2013-05-25 14:42:00,76.6,66.9,30.01,South,176,14.0,23.0,72,0.01,,---,0.20,VWS V14.01,2013-05-25 19:42:00,
2013-05-25 14:45:00,76.7,67.0,30.01,South,181,16.0,23.0,72,0.01,,---,0.20,VWS V14.01,2013-05-25 19:45:00,
2013-05-25 14:48:00,76.9,67.6,30.01,South,180,12.0,23.0,73,0.01,,---,0.20,VWS V14.01,2013-05-25 19:48:00,
2013-05-25 14:52:00,77.0,67.3,30.01,SE,143,15.0,23.0,72,0.01,,---,0.20,VWS V14.01,2013-05-25 19:52:00,
2013-05-25 14:58:00,76.5,66.8,30.00,SSW,200,10.0,23.0,72,0.01,,---,0.20,VWS V14.01,2013-05-25 19:58:00,
2013-05-25 15:01:00,76.6,68.1,30.00,SSE,155,11.0,15.0,75,0.01,,---,0.21,VWS V14.01,2013-05-25 20:01:00,
2013-05-25 15:04:00,76.9,67.2,30.00,South,178,8.0,17.0,72,0.01,,---,0.21,VWS V14.01,2013-05-25 20:04:00,
2013-05-25 15:07:00,77.0,67.7,30.00,SSE,154,7.0,18.0,73,0.01,,---,0.21,VWS V14.01,2013-05-25 20:07:00,
2013-05-25 15:10:00,77.1,67.8,30.00,SSE,159,13.0,19.0,73,0.01,,---,0.21,VWS V14.01,2013-05-25 20:10:00,
2013-05-25 15:13:00,77.6,69.1,30.00,South,183,13.0,19.0,75,0.01,,---,0.21,VWS V14.01,2013-05-25 20:13:00,
2013-05-25 15:16:00,78.4,69.0,29.99,South,181,9.0,20.0,73,0.01,,---,0.21,VWS V14.01,2013-05-25 20:16:00,
2013-05-25 15:19:00,79.1,68.9,30.00,SSE,164,15.0,20.0,71,0.01,,---,0.21,VWS V14.01,2013-05-25 20:19:00,
2013-05-25 15:22:00,79.3,69.1,29.99,SSE,168,13.0,20.0,71,0.01,,---,0.21,VWS V14.01,2013-05-25 20:22:00,
2013-05-25 15:28:00,79.6,69.0,30.00,SSE,164,9.0,20.0,70,0.01,,---,0.21,VWS V14.01,2013-05-25 20:28:00,
2013-05-25 15:31:00,79.6,69.0,29.99,SE,140,12.0,18.0,70,0.01,,---,0.21,VWS V14.01,2013-05-25 20:31:00,
2013-05-25 15:34:00,79.1,68.5,29.99,SSW,192,8.0,18.0,70,0.01,,---,0.21,VWS V14.01,2013-05-25 20:34:00,
2013-05-25 15:37:00,79.1,69.3,29.99,SSE,155,13.0,18.0,72,0.01,,---,0.21,VWS V14.01,2013-05-25 20:37:00,
2013-05-25 15:43:00,79.3,69.1,29.99,South,169,10.0,18.0,71,0.01,,---,0.21,VWS V14.01,2013-05-25 20:43:00,
2013-05-25 15:46:00,79.6,69.4,29.99,South,184,8.0,18.0,71,0.01,,---,0.21,VWS V14.01,2013-05-25 20:46:00,
2013-05-25 15:49:00,79.2,69.0,29.99,SE,135,13.0,18.0,71,0.01,,---,0.21,VWS V14.01,2013-05-25 20:49:00,
2013-05-25 15:52:00,79.2,69.0,29.99,SSE,157,11.0,18.0,71,0.01,,---,0.21,VWS V14.01,2013-05-25 20:52:00,
2013-05-25 15:58:00,80.7,70.0,29.98,South,180,12.0,19.0,70,0.01,,---,0.21,VWS V14.01,2013-05-25 20:58:00,
2013-05-25 16:01:00,81.3,70.6,29.98,SSE,164,7.0,15.0,70,0.01,,---,0.21,VWS V14.01,2013-05-25 21:01:00,
2013-05-25 16:04:00,81.1,69.1,29.98,SSE,153,16.0,19.0,67,0.01,,---,0.21,VWS V14.01,2013-05-25 21:04:00,
2013-05-25 16:07:00,81.2,69.6,29.98,South,179,14.0,19.0,68,0.01,,---,0.21,VWS V14.01,2013-05-25 21:07:00,
2013-05-25 16:10:00,81.6,69.2,29.98,SSW,192,18.0,19.0,66,0.01,,---,0.21,VWS V14.01,2013-05-25 21:10:00,
2013-05-25 16:13:00,81.6,67.8,29.98,South,173,14.0,19.0,63,0.01,,---,0.21,VWS V14.01,2013-05-25 21:13:00,
2013-05-25 16:16:00,81.2,68.3,29.98,South,179,11.0,19.0,65,0.01,,---,0.21,VWS V14.01,2013-05-25 21:16:00,
2013-05-25 16:19:00,81.2,68.3,29.97,South,178,10.0,19.0,65,0.01,,---,0.21,VWS V14.01,2013-05-25 21:19:00,
2013-05-25 16:25:00,81.4,68.5,29.97,SSW,209,6.0,19.0,65,0.01,,---,0.21,VWS V14.01,2013-05-25 21:25:00,
2013-05-25 16:28:00,81.7,68.3,29.97,South,171,9.0,19.0,64,0.01,,---,0.21,VWS V14.01,2013-05-25 21:28:00,
2013-05-25 16:34:00,81.9,68.1,29.97,SSE,167,7.0,16.0,63,0.01,,---,0.22,VWS V14.01,2013-05-25 21:34:00,
2013-05-25 16:40:00,82.0,67.7,29.96,SE,140,8.0,18.0,62,0.01,,---,0.22,VWS V14.01,2013-05-25 21:40:00,
2013-05-25 16:43:00,81.7,67.4,29.96,South,172,14.0,18.0,62,0.01,,---,0.22,VWS V14.01,2013-05-25 21:43:00,
2013-05-25 16:46:00,81.6,67.3,29.96,South,171,13.0,18.0,62,0.01,,---,0.22,VWS V14.01,2013-05-25 21:46:00,
2013-05-25 16:49:00,81.6,67.8,29.96,South,179,10.0,18.0,63,0.01,,---,0.22,VWS V14.01,2013-05-25 21:49:00,
2013-05-25 16:52:00,81.9,68.1,29.96,SSW,213,9.0,18.0,63,0.01,,---,0.22,VWS V14.01,2013-05-25 21:52:00,
2013-05-25 16:55:00,82.1,68.3,29.96,SE,144,7.0,18.0,63,0.01,,---,0.22,VWS V14.01,2013-05-25 21:55:00,
2013-05-25 16:58:00,82.1,68.3,29.96,South,186,8.0,18.0,63,0.01,,---,0.22,VWS V14.01,2013-05-25 21:58:00,
2013-05-25 17:01:00,81.7,67.4,29.96,SW,215,9.0,15.0,62,0.01,,---,0.22,VWS V14.01,2013-05-25 22:01:00,
2013-05-25 17:08:00,81.5,67.7,29.95,South,183,13.0,18.0,63,0.01,,---,0.22,VWS V14.01,2013-05-25 22:08:00,
2013-05-25 17:11:00,81.5,67.7,29.95,SSW,198,9.0,18.0,63,0.01,,---,0.22,VWS V14.01,2013-05-25 22:11:00,
2013-05-25 17:14:00,81.9,68.1,29.95,South,181,8.0,18.0,63,0.01,,---,0.22,VWS V14.01,2013-05-25 22:14:00,
2013-05-25 17:17:00,81.3,66.6,29.95,South,182,10.0,18.0,61,0.01,,---,0.22,VWS V14.01,2013-05-25 22:17:00,
2013-05-25 17:23:00,80.8,67.5,29.95,South,179,6.0,18.0,64,0.01,,---,0.22,VWS V14.01,2013-05-25 22:23:00,
2013-05-25 17:26:00,80.7,67.4,29.95,South,180,7.0,18.0,64,0.01,,---,0.22,VWS V14.01,2013-05-25 22:26:00,
2013-05-25 17:29:00,80.9,68.0,29.95,SSE,165,5.0,10.0,65,0.01,,---,0.22,VWS V14.01,2013-05-25 22:29:00,
2013-05-25 17:32:00,80.9,67.1,29.95,South,189,5.0,10.0,63,0.01,,---,0.22,VWS V14.01,2013-05-25 22:32:00,
2013-05-25 17:35:00,80.6,67.3,29.95,South,173,11.0,14.0,64,0.01,,---,0.22,VWS V14.01,2013-05-25 22:35:00,
2013-05-25 17:38:00,80.4,67.6,29.95,SSE,163,7.0,14.0,65,0.01,,---,0.22,VWS V14.01,2013-05-25 22:38:00,
2013-05-25 17:41:00,81.1,68.2,29.94,SSE,147,9.0,15.0,65,0.01,,---,0.22,VWS V14.01,2013-05-25 22:41:00,
2013-05-25 17:44:00,81.6,67.8,29.94,SSW,210,5.0,15.0,63,0.01,,---,0.22,VWS V14.01,2013-05-25 22:44:00,
2013-05-25 17:47:00,81.7,67.9,29.94,South,177,9.0,15.0,63,0.01,,---,0.22,VWS V14.01,2013-05-25 22:47:00,
2013-05-25 17:50:00,81.6,67.8,29.94,South,173,11.0,16.0,63,0.01,,---,0.22,VWS V14.01,2013-05-25 22:50:00,
2013-05-25 17:56:00,81.7,68.3,29.94,South,172,9.0,16.0,64,0.01,,---,0.22,VWS V14.01,2013-05-25 22:56:00,
2013-05-25 17:58:00,81.9,67.6,29.94,South,173,8.0,16.0,62,0.01,,---,0.22,VWS V14.01,2013-05-25 22:58:00,
2013-05-25 18:05:00,81.5,67.2,29.94,SSE,167,8.0,16.0,62,0.00,,---,0.22,VWS V14.01,2013-05-25 23:05:00,
2013-05-25 18:08:00,81.3,67.5,29.94,SSW,209,7.0,16.0,63,0.00,,---,0.22,VWS V14.01,2013-05-25 23:08:00,
2013-05-25 18:11:00,81.1,67.3,29.93,SSE,165,10.0,16.0,63,0.00,,---,0.22,VWS V14.01,2013-05-25 23:11:00,
2013-05-25 18:14:00,81.0,67.7,29.93,South,175,9.0,16.0,64,0.00,,---,0.22,VWS V14.01,2013-05-25 23:14:00,
2013-05-25 18:17:00,81.1,68.2,29.93,SSE,162,7.0,16.0,65,0.00,,---,0.22,VWS V14.01,2013-05-25 23:17:00,
2013-05-25 18:20:00,81.3,68.4,29.93,SE,140,6.0,16.0,65,0.00,,---,0.22,VWS V14.01,2013-05-25 23:20:00,
2013-05-25 18:23:00,81.4,68.5,29.93,SSE,158,5.0,16.0,65,0.01,,---,0.23,VWS V14.01,2013-05-25 23:23:00,
2013-05-25 18:26:00,81.4,68.1,29.93,SSE,150,12.0,16.0,64,0.01,,---,0.23,VWS V14.01,2013-05-25 23:26:00,
2013-05-25 18:28:00,81.4,68.5,29.93,SSE,167,5.0,16.0,65,0.01,,---,0.23,VWS V14.01,2013-05-25 23:28:00,
2013-05-25 18:29:00,81.4,68.5,29.93,SE,141,11.0,12.0,65,0.01,,---,0.23,VWS V14.01,2013-05-25 23:29:00,
2013-05-25 18:32:00,81.3,68.0,29.93,SSE,163,11.0,14.0,64,0.01,,---,0.23,VWS V14.01,2013-05-25 23:32:00,
2013-05-25 18:38:00,81.2,67.9,29.93,SSE,163,9.0,17.0,64,0.01,,---,0.23,VWS V14.01,2013-05-25 23:38:00,
2013-05-25 18:41:00,81.0,67.2,29.93,SSE,157,11.0,17.0,63,0.01,,---,0.23,VWS V14.01,2013-05-25 23:41:00,
2013-05-25 18:44:00,80.7,67.4,29.93,SSE,158,5.0,17.0,64,0.01,,---,0.23,VWS V14.01,2013-05-25 23:44:00,
2013-05-25 18:47:00,80.5,67.2,29.93,SSE,150,8.0,17.0,64,0.01,,---,0.23,VWS V14.01,2013-05-25 23:47:00,
2013-05-25 18:50:00,80.2,67.4,29.93,South,181,5.0,17.0,65,0.01,,---,0.23,VWS V14.01,2013-05-25 23:50:00,
2013-05-25 18:56:00,79.5,67.2,29.92,South,182,6.0,17.0,66,0.01,,---,0.23,VWS V14.01,2013-05-25 23:56:00,
2013-05-25 18:58:00,79.4,67.1,29.92,SSE,155,8.0,17.0,66,0.01,,---,0.23,VWS V14.01,2013-05-25 23:58:00,
2013-05-25 18:59:00,79.3,67.0,29.92,SSE,148,6.0,12.0,66,0.01,,---,0.23,VWS V14.01,2013-05-25 23:59:00,
2013-05-25 19:05:00,79.1,66.8,29.92,South,175,7.0,17.0,66,0.01,,---,0.23,VWS V14.01,2013-05-26 00:05:00,
2013-05-25 19:08:00,79.3,67.4,29.92,SSE,156,6.0,17.0,67,0.01,,---,0.23,VWS V14.01,2013-05-26 00:08:00,
2013-05-25 19:11:00,79.4,67.5,29.92,SE,139,8.0,17.0,67,0.01,,---,0.23,VWS V14.01,2013-05-26 00:11:00,
2013-05-25 19:15:00,79.3,67.4,29.92,SSE,147,8.0,17.0,67,0.01,,---,0.23,VWS V14.01,2013-05-26 00:15:00,
2013-05-25 19:21:00,79.2,66.9,29.92,SE,143,10.0,17.0,66,0.01,,---,0.23,VWS V14.01,2013-05-26 00:21:00,
2013-05-25 19:24:00,79.1,67.2,29.92,SE,142,8.0,17.0,67,0.01,,---,0.23,VWS V14.01,2013-05-26 00:24:00,
2013-05-25 19:28:00,79.1,67.2,29.92,SSE,151,7.0,17.0,67,0.01,,---,0.23,VWS V14.01,2013-05-26 00:28:00,
2013-05-25 19:36:00,79.5,67.6,29.92,SSE,148,6.0,13.0,67,0.00,,---,0.23,VWS V14.01,2013-05-26 00:36:00,
2013-05-25 19:39:00,79.4,67.5,29.92,East,101,8.0,13.0,67,0.00,,---,0.23,VWS V14.01,2013-05-26 00:39:00,
2013-05-25 19:42:00,79.2,67.3,29.92,SSE,149,6.0,13.0,67,0.00,,---,0.23,VWS V14.01,2013-05-26 00:42:00,
2013-05-25 19:45:00,79.1,67.6,29.92,ESE,122,8.0,13.0,68,0.00,,---,0.23,VWS V14.01,2013-05-26 00:45:00,
2013-05-25 19:51:00,78.7,67.3,29.92,SE,140,4.0,13.0,68,0.00,,---,0.23,VWS V14.01,2013-05-26 00:51:00,
2013-05-25 19:54:00,78.5,67.1,29.92,SSE,154,6.0,13.0,68,0.00,,---,0.23,VWS V14.01,2013-05-26 00:54:00,
2013-05-25 19:58:00,78.4,67.4,29.92,SSE,149,6.0,13.0,69,0.00,,---,0.23,VWS V14.01,2013-05-26 00:58:00,
2013-05-25 20:00:00,78.3,67.3,29.93,SSE,148,9.0,11.0,69,0.00,,---,0.23,VWS V14.01,2013-05-26 01:00:00,
2013-05-25 20:03:00,78.2,67.2,29.92,SE,144,6.0,11.0,69,0.00,,---,0.23,VWS V14.01,2013-05-26 01:03:00,
2013-05-25 20:06:00,78.0,67.4,29.92,SE,136,6.0,13.0,70,0.00,,---,0.23,VWS V14.01,2013-05-26 01:06:00,
2013-05-25 20:09:00,77.8,67.2,29.92,SE,141,7.0,13.0,70,0.00,,---,0.23,VWS V14.01,2013-05-26 01:09:00,
2013-05-25 20:12:00,77.6,67.1,29.93,SE,126,8.0,13.0,70,0.00,,---,0.23,VWS V14.01,2013-05-26 01:12:00,
2013-05-25 20:15:00,77.4,66.9,29.93,SE,144,10.0,15.0,70,0.00,,---,0.23,VWS V14.01,2013-05-26 01:15:00,
2013-05-25 20:18:00,77.2,67.1,29.92,SE,140,9.0,15.0,71,0.00,,---,0.23,VWS V14.01,2013-05-26 01:18:00,
2013-05-25 20:21:00,76.9,66.8,29.92,SSE,155,6.0,15.0,71,0.00,,---,0.23,VWS V14.01,2013-05-26 01:21:00,
2013-05-25 20:24:00,76.7,66.6,29.92,SSE,158,6.0,15.0,71,0.00,,---,0.23,VWS V14.01,2013-05-26 01:24:00,
2013-05-25 20:27:00,76.4,66.7,29.92,SE,143,6.0,15.0,72,0.00,,---,0.23,VWS V14.01,2013-05-26 01:27:00,
2013-05-25 20:28:00,76.4,66.7,29.92,SSE,150,7.0,15.0,72,0.00,,---,0.23,VWS V14.01,2013-05-26 01:28:00,
2013-05-25 20:33:00,76.0,66.7,29.93,SE,144,5.0,11.0,73,0.00,,---,0.23,VWS V14.01,2013-05-26 01:33:00,
2013-05-25 20:36:00,75.9,66.6,29.93,SE,132,7.0,11.0,73,0.00,,---,0.23,VWS V14.01,2013-05-26 01:36:00,
2013-05-25 20:39:00,75.7,66.4,29.92,SSE,153,3.0,11.0,73,0.00,,---,0.23,VWS V14.01,2013-05-26 01:39:00,
2013-05-25 20:42:00,75.6,66.3,29.92,SE,140,5.0,11.0,73,0.00,,---,0.23,VWS V14.01,2013-05-26 01:42:00,
2013-05-25 20:45:00,75.6,66.7,29.92,SSE,152,5.0,11.0,74,0.00,,---,0.23,VWS V14.01,2013-05-26 01:45:00,
2013-05-25 20:48:00,75.5,66.6,29.92,SSE,150,7.0,11.0,74,0.00,,---,0.23,VWS V14.01,2013-05-26 01:48:00,
2013-05-25 20:51:00,75.4,66.5,29.93,SE,134,6.0,11.0,74,0.00,,---,0.23,VWS V14.01,2013-05-26 01:51:00,
2013-05-25 20:54:00,75.3,66.4,29.93,SE,146,3.0,11.0,74,0.00,,---,0.23,VWS V14.01,2013-05-26 01:54:00,
2013-05-25 20:57:00,75.1,66.6,29.93,SSE,149,5.0,11.0,75,0.00,,---,0.23,VWS V14.01,2013-05-26 01:57:00,
2013-05-25 20:58:00,75.1,66.6,29.93,SSE,156,3.0,11.0,75,0.00,,---,0.23,VWS V14.01,2013-05-26 01:58:00,
2013-05-25 21:00:00,74.9,66.4,29.93,SSE,147,8.0,8.0,75,0.00,,---,0.23,VWS V14.01,2013-05-26 02:00:00,
2013-05-25 21:03:00,74.8,66.3,29.93,SE,140,3.0,8.0,75,0.00,,---,0.23,VWS V14.01,2013-05-26 02:03:00,
2013-05-25 21:06:00,74.6,66.5,29.93,SE,130,5.0,9.0,76,0.00,,---,0.23,VWS V14.01,2013-05-26 02:06:00,
2013-05-25 21:12:00,74.5,66.4,29.93,SSE,150,6.0,9.0,76,0.00,,---,0.23,VWS V14.01,2013-05-26 02:12:00,
2013-05-25 21:18:00,74.2,66.5,29.93,SE,138,4.0,9.0,77,0.00,,---,0.23,VWS V14.01,2013-05-26 02:18:00,
2013-05-25 21:21:00,74.0,66.3,29.94,SSE,150,3.0,9.0,77,0.00,,---,0.23,VWS V14.01,2013-05-26 02:21:00,
2013-05-25 21:24:00,73.9,66.2,29.94,SE,146,5.0,9.0,77,0.00,,---,0.23,VWS V14.01,2013-05-26 02:24:00,
2013-05-25 21:28:00,73.9,66.6,29.94,SE,138,4.0,9.0,78,0.00,,---,0.23,VWS V14.01,2013-05-26 02:28:00,
2013-05-25 21:31:00,73.8,66.5,29.94,South,175,4.0,5.0,78,0.00,,---,0.23,VWS V14.01,2013-05-26 02:31:00,
2013-05-25 21:34:00,73.7,66.8,29.94,SE,143,2.0,7.0,79,0.00,,---,0.23,VWS V14.01,2013-05-26 02:34:00,
2013-05-25 21:40:00,73.5,66.6,29.94,SE,132,4.0,7.0,79,0.00,,---,0.23,VWS V14.01,2013-05-26 02:40:00,
2013-05-25 21:46:00,73.2,66.7,29.93,ESE,122,7.0,8.0,80,0.00,,---,0.23,VWS V14.01,2013-05-26 02:46:00,
2013-05-25 21:49:00,73.2,66.7,29.94,SE,133,7.0,9.0,80,0.00,,---,0.23,VWS V14.01,2013-05-26 02:49:00,
2013-05-25 21:52:00,73.2,67.0,29.94,SE,136,5.0,10.0,81,0.00,,---,0.23,VWS V14.01,2013-05-26 02:52:00,
2013-05-25 21:55:00,73.3,66.8,29.94,SSE,159,5.0,10.0,80,0.00,,---,0.23,VWS V14.01,2013-05-26 02:55:00,
2013-05-25 21:58:00,73.3,66.8,29.94,SE,141,10.0,10.0,80,0.00,,---,0.23,VWS V14.01,2013-05-26 02:58:00,
2013-05-25 22:01:00,73.3,66.8,29.94,SE,143,5.0,11.0,80,0.00,,---,0.23,VWS V14.01,2013-05-26 03:01:00,
2013-05-25 22:03:00,72.5,67.1,29.98,South,186,6.0,9.0,83,0.00,,---,0.23,VWS V14.01,2013-05-26 03:03:00,
2013-05-25 22:04:00,73.3,66.8,29.94,SE,145,5.0,13.0,80,0.00,,---,0.23,VWS V14.01,2013-05-26 03:04:00,
2013-05-25 22:06:00,72.6,67.2,29.99,SSE,153,6.0,11.0,83,0.00,,---,0.23,VWS V14.01,2013-05-26 03:06:00,
2013-05-25 22:07:00,73.3,66.8,29.93,SSE,148,10.0,13.0,80,0.00,,---,0.23,VWS V14.01,2013-05-26 03:07:00,
2013-05-25 22:09:00,72.7,67.2,29.99,SSE,160,8.0,11.0,83,0.00,,---,0.23,VWS V14.01,2013-05-26 03:09:00,
2013-05-25 22:10:00,73.3,66.8,29.93,SE,138,6.0,13.0,80,0.00,,---,0.23,VWS V14.01,2013-05-26 03:10:00,
2013-05-25 22:12:00,72.8,67.3,29.99,South,172,3.0,11.0,83,0.00,,---,0.23,VWS V14.01,2013-05-26 03:12:00,
2013-05-25 22:15:00,72.7,67.2,29.99,SSE,163,5.0,11.0,83,0.00,,---,0.23,VWS V14.01,2013-05-26 03:15:00,
2013-05-25 22:16:00,73.1,66.9,29.94,SSE,161,5.0,13.0,81,0.00,,---,0.23,VWS V14.01,2013-05-26 03:16:00,
2013-05-25 22:18:00,72.6,67.2,29.99,South,170,5.0,11.0,83,0.00,,---,0.23,VWS V14.01,2013-05-26 03:18:00,
2013-05-25 22:19:00,73.1,66.9,29.94,SSE,168,4.0,13.0,81,0.00,,---,0.23,VWS V14.01,2013-05-26 03:19:00,
2013-05-25 22:21:00,72.6,67.2,29.99,SSE,162,7.0,11.0,83,0.00,,---,0.23,VWS V14.01,2013-05-26 03:21:00,
2013-05-25 22:22:00,73.1,66.9,29.95,SSE,162,2.0,13.0,81,0.00,,---,0.23,VWS V14.01,2013-05-26 03:22:00,
2013-05-25 22:24:00,72.5,67.1,29.99,South,172,3.0,11.0,83,0.00,,---,0.23,VWS V14.01,2013-05-26 03:24:00,
2013-05-25 22:25:00,73.0,66.8,29.96,SSE,159,5.0,13.0,81,0.00,,---,0.23,VWS V14.01,2013-05-26 03:25:00,
2013-05-25 22:27:00,72.4,67.3,29.98,SSE,155,6.0,11.0,84,0.00,,---,0.23,VWS V14.01,2013-05-26 03:27:00,
2013-05-25 22:28:00,73.0,66.8,29.96,SE,144,4.0,13.0,81,0.00,,---,0.23,VWS V14.01,2013-05-26 03:28:00,
2013-05-25 22:30:00,72.4,67.3,29.98,South,180,11.0,11.0,84,0.00,,---,0.23,VWS V14.01,2013-05-26 03:30:00,
2013-05-25 22:33:00,72.4,67.3,29.98,South,171,6.0,11.0,84,0.00,,---,0.23,VWS V14.01,2013-05-26 03:33:00,
2013-05-25 22:34:00,72.9,67.1,29.96,SSE,157,11.0,11.0,82,0.00,,---,0.23,VWS V14.01,2013-05-26 03:34:00,
2013-05-25 22:36:00,72.3,67.2,29.98,South,173,4.0,11.0,84,0.00,,---,0.23,VWS V14.01,2013-05-26 03:36:00,
2013-05-25 22:37:00,73.0,67.2,29.96,SSE,159,4.0,11.0,82,0.00,,---,0.23,VWS V14.01,2013-05-26 03:37:00,
2013-05-25 22:39:00,72.2,67.1,29.97,SE,146,8.0,13.0,84,0.00,,---,0.23,VWS V14.01,2013-05-26 03:39:00,
2013-05-25 22:40:00,72.9,67.1,29.97,SE,146,4.0,11.0,82,0.00,,---,0.23,VWS V14.01,2013-05-26 03:40:00,
2013-05-25 22:42:00,72.2,67.1,29.97,SSE,153,6.0,13.0,84,0.00,,---,0.23,VWS V14.01,2013-05-26 03:42:00,
2013-05-25 22:43:00,72.8,67.0,29.97,SSE,157,3.0,11.0,82,0.00,,---,0.23,VWS V14.01,2013-05-26 03:43:00,
2013-05-25 22:45:00,72.2,67.1,29.97,SE,145,8.0,13.0,84,0.00,,---,0.23,VWS V14.01,2013-05-26 03:45:00,
2013-05-25 22:46:00,72.7,66.9,29.97,SE,141,8.0,11.0,82,0.00,,---,0.23,VWS V14.01,2013-05-26 03:46:00,
2013-05-25 22:48:00,72.2,67.1,29.97,SSE,155,9.0,13.0,84,0.00,,---,0.23,VWS V14.01,2013-05-26 03:48:00,
2013-05-25 22:49:00,72.7,67.2,29.97,SE,134,7.0,11.0,83,0.00,,---,0.23,VWS V14.01,2013-05-26 03:49:00,
2013-05-25 22:51:00,72.1,67.0,29.97,SSE,165,6.0,13.0,84,0.00,,---,0.23,VWS V14.01,2013-05-26 03:51:00,
2013-05-25 22:52:00,72.7,67.2,29.97,SSE,159,3.0,11.0,83,0.00,,---,0.23,VWS V14.01,2013-05-26 03:52:00,
2013-05-25 22:54:00,72.1,67.0,29.97,SSE,158,6.0,13.0,84,0.00,,---,0.23,VWS V14.01,2013-05-26 03:54:00,
2013-05-25 22:55:00,72.6,67.2,29.98,SE,130,8.0,11.0,83,0.00,,---,0.23,VWS V14.01,2013-05-26 03:55:00,
2013-05-25 22:57:00,72.1,67.0,29.97,SSE,159,7.0,13.0,84,0.00,,---,0.23,VWS V14.01,2013-05-26 03:57:00,
2013-05-25 22:58:00,72.6,67.2,29.98,SSE,161,4.0,11.0,83,0.00,,---,0.23,VWS V14.01,2013-05-26 03:58:00,
2013-05-25 23:00:00,72.0,66.9,29.97,SSE,157,9.0,13.0,84,0.00,,---,0.23,VWS V14.01,2013-05-26 04:00:00,
2013-05-25 23:03:00,71.9,66.8,29.98,SSE,164,6.0,12.0,84,0.00,,---,0.23,VWS V14.01,2013-05-26 04:03:00,
2013-05-25 23:06:00,71.8,67.1,29.98,SSE,153,3.0,12.0,85,0.00,,---,0.23,VWS V14.01,2013-05-26 04:06:00,
2013-05-25 23:09:00,71.7,66.9,29.97,South,171,6.0,12.0,85,0.00,,---,0.23,VWS V14.01,2013-05-26 04:09:00,
2013-05-25 23:12:00,71.7,66.9,29.98,SSE,166,5.0,12.0,85,0.00,,---,0.23,VWS V14.01,2013-05-26 04:12:00,
2013-05-25 23:15:00,71.6,66.9,29.98,SSE,167,8.0,12.0,85,0.00,,---,0.23,VWS V14.01,2013-05-26 04:15:00,
2013-05-25 23:18:00,71.5,66.8,29.98,SSE,167,7.0,12.0,85,0.00,,---,0.23,VWS V14.01,2013-05-26 04:18:00,
2013-05-25 23:21:00,71.5,66.8,29.98,SSE,163,3.0,12.0,85,0.00,,---,0.23,VWS V14.01,2013-05-26 04:21:00,
2013-05-25 23:24:00,71.5,66.8,29.98,SSE,148,3.0,12.0,85,0.00,,---,0.23,VWS V14.01,2013-05-26 04:24:00,
2013-05-25 23:27:00,71.4,67.0,29.98,South,182,9.0,12.0,86,0.00,,---,0.23,VWS V14.01,2013-05-26 04:27:00,
2013-05-25 23:30:00,71.3,66.9,29.98,South,186,3.0,12.0,86,0.00,,---,0.23,VWS V14.01,2013-05-26 04:30:00,
2013-05-25 23:33:00,71.3,66.9,29.98,South,184,7.0,7.0,86,0.00,,---,0.23,VWS V14.01,2013-05-26 04:33:00,
2013-05-25 23:36:00,71.3,66.9,29.98,South,171,4.0,7.0,86,0.00,,---,0.23,VWS V14.01,2013-05-26 04:36:00,
2013-05-25 23:39:00,71.3,66.9,29.98,SSE,159,5.0,8.0,86,0.00,,---,0.23,VWS V14.01,2013-05-26 04:39:00,
2013-05-25 23:42:00,71.2,66.8,29.98,SSE,167,7.0,11.0,86,0.00,,---,0.23,VWS V14.01,2013-05-26 04:42:00,
2013-05-25 23:45:00,71.2,66.8,29.98,SSE,155,4.0,11.0,86,0.00,,---,0.23,VWS V14.01,2013-05-26 04:45:00,
2013-05-25 23:48:00,71.2,66.8,29.98,SSE,161,5.0,11.0,86,0.00,,---,0.23,VWS V14.01,2013-05-26 04:48:00,
2013-05-25 23:51:00,71.2,66.8,29.98,SSE,147,4.0,11.0,86,0.00,,---,0.23,VWS V14.01,2013-05-26 04:51:00,
2013-05-25 23:54:00,71.1,67.0,29.98,South,176,5.0,11.0,87,0.00,,---,0.23,VWS V14.01,2013-05-26 04:54:00,
2013-05-25 23:57:00,71.1,67.0,29.98,South,178,4.0,11.0,87,0.00,,---,0.23,VWS V14.01,2013-05-26 04:57:00,